[Iaude] MPEC B53: 2024 BE1 [a=1.34,e=0.36,i=5.8,H=28.9]

mpec at marsden.cfa.harvard.edu mpec at marsden.cfa.harvard.edu
Fri Jan 19 21:52:15 EST 2024


M.P.E.C. 2024-B53                              Issued 2024 January 20, 02:50 UT

     The Minor Planet Electronic Circulars contain information on unusual
         minor planets, routine data on comets and natural satellites,
         and occasional editorial announcements.  They are published
    on behalf of Division F of the International Astronomical Union by the
          Minor Planet Center, Smithsonian Astrophysical Observatory,
                          Cambridge, MA 02138, U.S.A.
			  
             Prepared using the Tamkin Foundation Computer Network

                              MPC at CFA.HARVARD.EDU
            URL https://www.minorplanetcenter.net/    ISSN 1523-6714

                                    2024 BE1                                    


Observations:
     K24B01E*1C2024 01 19.29515809 02 29.040+29 40 31.80         20.30GVEB053G96
     K24B01E 1C2024 01 19.30025309 02 37.410+29 38 53.70               VEB053G96
     K24B01E 1C2024 01 19.30534409 02 45.780+29 37 15.60               VEB053G96
     K24B01E 1C2024 01 19.31043609 02 54.270+29 35 35.20               VEB053G96
     K24B01E KC2024 01 19.38016809 04 51.611+29 11 45.46         20.44GVEB053I52
     K24B01E KC2024 01 19.38074509 04 52.619+29 11 32.35         20.11GVEB053I52
     K24B01E KC2024 01 19.38132309 04 53.620+29 11 19.90         20.24GVEB053I52
     K24B01E hC2024 01 19.91397509 26 32.146+25 04 14.05         20.1 GVEB053J95
     K24B01E KB2024 01 19.91981909 26 51.78 +25 02 17.5          19.9 GXEB053I93
     K24B01E KB2024 01 19.92427909 27 03.83 +24 59 47.3          19.8 GXEB053I93
     K24B01E KB2024 01 19.92871309 27 15.83 +24 57 16.1          20.2 GXEB053I93
     K24B01E 1C2024 01 19.94236 09 27 43.42 +24 48 40.4          20.1 VXEB053033
     K24B01E 1C2024 01 19.94271 09 27 44.37 +24 48 28.7          20.1 VXEB053033
     K24B01E 1C2024 01 19.94305 09 27 45.32 +24 48 16.3          20.2 VXEB053033
     K24B01E hC2024 01 19.95572209 28 26.628+24 40 15.38               VEB053J95
     K24B01E KC2024 01 20.00548709 30 36.71 +24 11 44.4          19.3 GVEB053L01
     K24B01E KC2024 01 20.00700409 30 40.95 +24 10 47.2          19.5 GVEB053L01
     K24B01E KC2024 01 20.00852109 30 45.21 +24 09 49.9          19.3 GVEB053L01
     K24B01E KC2024 01 20.01007509 30 49.54 +24 08 50.2          19.8 GVEB053L01
     K24B01E KC2024 01 20.01254509 30 56.36 +24 07 16.2          19.5 GVEB053L01

Observer details:
033 Karl Schwarzschild Observatory, Tautenburg.  Observers S. Melnikov, C.
    Hogner, F. Ludwig, M. Hartmann, B. Stecklum.  Measurer B. Stecklum.
    1.34-m f/3 Schmidt + CCD.
G96 Mt. Lemmon Survey.  Observer A. R. Gibbs.  Measurers T. Beuden, V. F.
    Carvajal, D. Fay, J. B. Fazekas, D. C. Fuls, A. R. Gibbs, A. D. Grauer, H.
    Groeller, J. K. Hogan, R. A. Kowalski, S. M. Larson, G. J. Leonard, D.
    Rankin, R. L. Seaman, F. C. Shelly, K. W. Wierzchos.  1.5-m reflector +
    10K CCD.
I52 Steward Observatory, Mt. Lemmon Station.  Observer R. A. Kowalski.
    Measurers E. C. Beshore, D. Fay, J. B. Fazekas, D. C. Fuls, A. R. Gibbs,
    A. D. Grauer, H. Groeller, J. K. Hogan, R. A. Kowalski, S. M. Larson, G.
    J. Leonard, D. Rankin, R. L. Seaman, F. C. Shelly, K. W. Wierzchos.  1.0-m
    prime focus + CCD.
I93 St Pardon de Conques.  Observer F. Losse.  0.40-m f/3.7 reflector + CMO.
J95 Great Shefford.  Observer P. Birtwhistle.  0.41-m f/6.3 Schmidt-Cassegrain
    + CCD.
L01 Visnjan Observatory, Tican.  Observer K. Korlevic.  1.0-m f/2.9 reflector
    + CCD.

Orbital elements:
2024 BE1                                                 Earth MOID = 0.0015 AU
Epoch 2023 Sept. 13.0 TT = JDT 2460200.5                Veres                   
M 248.11054              (2000.0)            P               Q                  
n   0.63575169     Peri.  240.43457     -0.99608576     +0.01339018             
a   1.3395051      Node   300.20746     +0.02675568     -0.89641443             
e   0.3603362      Incl.    5.80254     -0.08424540     -0.44301453             
P   1.55           H   28.91          G   0.15           U   7                  
Residuals in seconds of arc
240119 G96  0.0   0.5-    240119 J95  0.3-  0.1-    240119 J95  0.3+  1.3-
240119 G96  0.3-  0.4-    240119 I93  0.3+  0.0     240120 L01  0.4-  0.4+
240119 G96  0.7-  0.3+    240119 I93  0.0   0.4+    240120 L01  0.1-  0.5+
240119 G96  0.2+  0.7-    240119 I93  0.2-  0.3-    240120 L01  0.4+  0.6+
240119 I52  0.1-  0.6+    240119 033  0.2-  0.1-    240120 L01  0.4+  0.2-
240119 I52  0.1+  0.1-    240119 033  0.2-  0.4+    240120 L01  0.6-  0.4-
240119 I52  0.1+  0.2-    240119 033  0.2+  0.1-

Ephemeris:
2024 BE1                 a,e,i = 1.34, 0.36, 6                   q = 0.8568
Date    TT    R. A. (2000) Decl.     Delta      r    Elong.  Phase     V
2023 12 21    07 31 17.3 +39 04 31   0.1921  1.1595   154.0    21.8    26.7
...
2024 01 05    07 43 11.8 +39 44 19   0.09586 1.0742   160.7    17.6    24.9
...
2024 01 13    07 57 36.8 +38 44 44   0.04913 1.0304   162.2    16.9    23.3
...
2024 01 19    08 53 46.9 +31 08 05   0.01578 0.9990   164.0    15.7    20.8
2024 01 20    09 30 11.5 +24 20 38   0.01068 0.9940   159.9    19.9    20.0
2024 01 21    10 47 10.1 +05 39 09   0.0065080.9889   139.0    40.8    19.6
...
2024 01 27    18 37 55.3 -45 15 04   0.03071 0.9599    35.8   143.1    28.5
...
2024 02 04    19 12 53.1 -42 46 44   0.07613 0.9250    35.8   141.5    30.2
...
2024 02 19    19 35 54.6 -40 06 05   0.1661  0.8757    43.7   128.8    30.3

M. P. C. Staff               (C) Copyright 2024 MPC           M.P.E.C. 2024-B53





More information about the Iaude mailing list